[[{"header":{"parameterUnit":"m.s-1","parameterCategory":2,"la1":30.2991,"la2":30.254,"lo1":-89.0895,"lo2":-89.0444,"dy":0.0017,"dx":0.0017,"nx":28,"ny":28,"refTime":"2025-11-17T09:00:00:Z","depth":"0","parameterNumber":2,"parameterNumberName":"U-component_of_CURRENTS"},"data":[0,0,0,0,0,0,0,0,0,0,0,0,0,0,0,0,0,0,0,0,0,0,0,0,0,0,0,0,0,0,0,0,0,0,0,0,0,0,0,0,0,0,0,0,0,0,0,0,0,0,0,0,0,0,0,0,0,0,-0.2952,-0.295,0,-0.2792,-0.279,-0.2788,-0.2728,-0.2728,-0.2728,-0.2729,-0.2479,-0.2472,-0.2465,0,0,0,0,0,0,0,0,0,0,0,0,0,-0.3121,-0.3119,-0.2952,-0.295,-0.2948,-0.2792,-0.279,-0.2788,-0.2728,-0.2728,-0.2728,-0.2729,-0.2481,-0.2473,-0.2464,0,0,0,0,0,0,0,0,0,0,0,0,0,-0.3015,-0.3119,-0.2953,-0.2898,-0.2891,-0.2792,-0.279,-0.2787,-0.2728,-0.2728,-0.2728,-0.2729,-0.2484,-0.2474,-0.2463,-0.239,0,0,-0.2432,-0.2427,0,0,0,0,0,0,0,0,-0.3022,-0.3009,-0.2908,-0.2901,-0.2894,-0.2778,-0.2758,-0.2649,-0.2727,-0.2792,-0.2729,-0.2729,-0.2569,-0.2552,-0.2524,-0.2378,-0.2367,-0.2431,-0.2424,-0.242,-0.2417,0,0,0,0,0,0,0,-0.3029,-0.3015,-0.2891,-0.2905,-0.2897,-0.2851,-0.2838,-0.2737,-0.268,-0.2786,-0.2781,-0.276,-0.2565,-0.2535,-0.2518,-0.2364,-0.2431,-0.2422,-0.2415,-0.2411,-0.2173,-0.2173,0,0,0,0,0,0,-0.3048,-0.3023,-0.2896,-0.2886,-0.2958,-0.2848,-0.2833,-0.2817,-0.2682,-0.2663,-0.2759,-0.2757,-0.2552,-0.253,-0.2509,-0.2383,-0.242,-0.241,-0.2404,-0.2173,-0.2173,-0.2173,0,0,0,0,0,0,-0.3053,-0.3039,-0.2902,-0.2949,-0.2928,-0.2845,-0.2827,-0.2813,-0.2784,-0.2663,-0.2642,-0.2744,-0.2552,-0.2523,-0.2431,-0.2374,-0.2405,-0.2396,-0.2173,-0.2173,-0.2173,-0.2151,0,0,0,0,0,0,-0.3058,-0.3042,-0.3039,-0.295,-0.2926,-0.284,-0.2826,-0.281,-0.2769,-0.2765,-0.2642,-0.262,-0.255,-0.2447,-0.2421,-0.236,-0.2388,-0.2173,-0.2173,-0.2173,-0.2152,-0.215,-0.2148,0,0,0,0,0,-0.3065,-0.3055,-0.304,-0.3024,-0.2924,-0.2839,-0.2822,-0.2766,-0.2768,-0.2745,-0.268,-0.2624,-0.2428,-0.2438,-0.2407,-0.2342,-0.2173,-0.2173,-0.2173,-0.2152,-0.215,-0.2149,0,0,0,0,0,0,-0.3119,-0.3045,-0.3027,-0.2994,-0.2922,-0.2828,-0.2796,-0.277,-0.2702,-0.2699,-0.2609,-0.258,-0.2484,-0.2431,-0.2446,-0.2284,-0.2295,-0.2289,-0.2291,-0.2287,-0.2286,-0.2277,-0.2379,0,0,0,0,0,-0.3132,-0.3107,-0.3025,-0.2993,-0.296,-0.2884,-0.2846,-0.2807,-0.2733,-0.2705,-0.2623,-0.2542,-0.2457,-0.2391,-0.2317,-0.2209,-0.2159,-0.2158,-0.2156,-0.2155,-0.2132,-0.2024,-0.2009,-0.2172,-0.2172,-0.2172,0,0,-0.3143,-0.3097,-0.3083,-0.3003,-0.2943,-0.287,-0.2862,-0.2798,-0.2734,-0.2684,-0.2581,-0.2532,-0.2437,-0.233,-0.228,-0.2271,-0.2089,-0.2154,-0.2153,-0.213,-0.2022,-0.2005,-0.1991,-0.2172,-0.2172,-0.2172,0,0,-0.3119,-0.3109,-0.3064,-0.3004,-0.2916,-0.2869,-0.2856,-0.2763,-0.2722,-0.2627,-0.2585,-0.2511,-0.2371,-0.2289,-0.223,-0.2175,-0.21,-0.2159,-0.2104,-0.2001,-0.1985,-0.1971,-0.191,-0.189,-0.2137,-0.2137,-0.2137,0,-0.3138,-0.3051,-0.3036,-0.2961,-0.2889,-0.287,-0.2778,-0.274,-0.2632,-0.2566,-0.2594,-0.2394,-0.2342,-0.2179,-0.2184,-0.2161,-0.211,-0.2112,-0.1994,-0.1979,-0.1964,-0.1904,-0.1883,-0.2136,-0.2136,-0.2136,-0.2136,0,-0.3053,-0.2983,-0.2947,-0.2847,-0.279,-0.2708,-0.2646,-0.2594,-0.2559,-0.2497,-0.2362,-0.2306,-0.2177,-0.2164,-0.2154,-0.2016,-0.2019,-0.2018,-0.199,-0.1945,-0.1887,-0.1865,-0.2134,-0.2135,-0.2135,-0.2135,0,0,-0.3067,-0.2916,-0.2897,-0.2806,-0.271,-0.264,-0.2557,-0.2432,-0.2349,-0.2292,-0.2153,-0.2072,-0.206,-0.2,-0.1976,-0.1905,-0.1802,-0.1924,-0.1919,-0.1849,-0.1589,-0.1582,-0.1558,-0.1769,-0.1765,-0.1761,-0.1597,0,-0.2979,-0.2808,-0.2765,-0.26,-0.2487,-0.2446,-0.2356,-0.2266,-0.2205,-0.2092,-0.2035,-0.1927,-0.199,-0.1935,-0.1872,-0.1823,-0.1738,-0.1848,-0.1655,-0.1649,-0.1635,-0.1529,-0.1512,-0.1362,-0.1575,-0.1571,-0.1569,0,-0.2862,-0.2761,-0.2572,-0.2406,-0.236,-0.2292,-0.2126,-0.2048,-0.1928,-0.1879,-0.1784,-0.176,-0.1662,-0.1736,-0.1589,-0.1656,-0.1616,-0.1589,-0.1581,-0.1558,-0.1599,-0.1438,-0.1313,-0.1304,-0.1534,-0.1537,-0.1539,0,-0.2779,-0.2608,-0.2443,-0.2383,-0.2224,-0.2146,-0.2087,-0.1967,-0.1852,-0.1756,-0.1686,-0.1574,-0.153,-0.1447,-0.1455,-0.1494,-0.1307,-0.1339,-0.1279,-0.1281,-0.1217,-0.122,-0.1041,-0.1191,-0.1191,-0.1192,-0.1192,0,-0.2636,-0.25,-0.2398,-0.2301,-0.2084,-0.2071,-0.1859,-0.1796,-0.1698,-0.1555,-0.1588,-0.15,-0.146,-0.1379,-0.1364,-0.1263,-0.1222,-0.1231,-0.1209,-0.1217,-0.1221,-0.1175,-0.1213,-0.1185,-0.1187,-0.1188,-0.1189,0,-0.2454,-0.2418,-0.2203,-0.2073,-0.2004,-0.1855,-0.1678,-0.1545,-0.1557,-0.1384,-0.1358,-0.1384,-0.1333,-0.1284,-0.1169,-0.115,-0.1029,-0.102,-0.1065,-0.105,-0.0987,-0.1027,-0.0842,-0.0812,-0.0886,-0.0885,-0.0883,0,-0.2297,-0.2175,-0.1981,-0.1847,-0.1762,-0.1571,-0.1408,-0.1393,-0.1281,-0.1319,-0.1223,-0.1228,-0.1213,-0.1094,-0.1028,-0.092,-0.0954,-0.0837,-0.0896,-0.0935,-0.0962,-0.1015,-0.1008,-0.0817,-0.0815,-0.0814,-0.0812,0,-0.1965,-0.193,-0.1778,-0.1528,-0.1358,-0.1132,-0.0984,-0.0888,-0.0917,-0.0901,-0.0973,-0.104,-0.1049,-0.1004,-0.0907,-0.0845,-0.0833,-0.0803,-0.0793,-0.0834,-0.0922,-0.0901,-0.102,-0.08,-0.0801,-0.0802,-0.0802,-0.0803,-0.1682,-0.1527,-0.1387,-0.1129,-0.0969,-0.0776,-0.0626,-0.056,-0.0465,-0.0501,-0.069,-0.079,-0.0953,-0.0864,-0.0792,-0.0675,-0.0728,-0.0654,-0.0682,-0.0719,-0.0727,-0.0843,-0.0639,-0.0639,-0.0639,-0.0639,-0.064,0,-0.1269,-0.1186,-0.0977,-0.0757,-0.0588,-0.0566,-0.0372,-0.0303,-0.0241,-0.0259,-0.0373,-0.0553,-0.0614,-0.0686,-0.0644,-0.0579,-0.0571,-0.0554,-0.0612,-0.0596,-0.0628,-0.0664,-0.0515,-0.0515,-0.0515,-0.0515,-0.0515,-0.0515,-0.1038,-0.0797,-0.0747,-0.044,-0.0341,-0.0153,-0.0069,-0.0023,-0.0008,-0.0017,-0.007,-0.0188,-0.0442,-0.0625,-0.0601,-0.0553,-0.054,-0.0535,-0.0528,-0.057,-0.0582,-0.0594,-0.0632,-0.0479,-0.0479,-0.0482,-0.0482,-0.0482]},{"header":{"parameterUnit":"m.s-1","parameterCategory":2,"la1":30.2991,"la2":30.254,"lo1":-89.0895,"lo2":-89.0444,"dy":0.0017,"dx":0.0017,"nx":28,"ny":28,"refTime":"2025-11-17T09:00:00:Z","depth":"0","parameterNumber":3,"parameterNumberName":"V-component_of_CURRENTS"},"data":[0,0,0,0,0,0,0,0,0,0,0,0,0,0,0,0,0,0,0,0,0,0,0,0,0,0,0,0,0,0,0,0,0,0,0,0,0,0,0,0,0,0,0,0,0,0,0,0,0,0,0,0,0,0,0,0,0,0,0.1295,0.1296,0,0.1428,0.1429,0.1431,0.1546,0.1548,0.1549,0.155,0.1674,0.1677,0.1679,0,0,0,0,0,0,0,0,0,0,0,0,0,0.1173,0.1174,0.1294,0.1296,0.1298,0.1427,0.1429,0.1431,0.1546,0.1548,0.1549,0.1551,0.1674,0.1676,0.1679,0,0,0,0,0,0,0,0,0,0,0,0,0,0.1258,0.1175,0.1294,0.137,0.1378,0.1427,0.1429,0.1432,0.1546,0.1548,0.155,0.1551,0.1673,0.1676,0.1679,0.1662,0,0,0.1689,0.1691,0,0,0,0,0,0,0,0,0.1253,0.1263,0.1357,0.1365,0.1374,0.1472,0.1432,0.1508,0.1545,0.1483,0.155,0.1552,0.1604,0.1613,0.1635,0.1668,0.1674,0.169,0.1691,0.1693,0.1694,0,0,0,0,0,0,0,0.1247,0.1258,0.1348,0.1359,0.1369,0.1409,0.1423,0.1447,0.1532,0.1489,0.1497,0.151,0.1609,0.1632,0.1639,0.1675,0.1689,0.1692,0.1694,0.1696,0.1687,0.1685,0,0,0,0,0,0,0.1225,0.1252,0.1344,0.1352,0.1316,0.1409,0.1425,0.1439,0.1532,0.1548,0.1508,0.1515,0.1625,0.1635,0.1644,0.1596,0.1693,0.1696,0.1698,0.1689,0.1686,0.1684,0,0,0,0,0,0,0.1222,0.1232,0.1339,0.1304,0.1321,0.1409,0.1424,0.1441,0.1461,0.1547,0.1563,0.1511,0.1627,0.1639,0.1655,0.1603,0.1697,0.17,0.1692,0.1688,0.1685,0.1522,0,0,0,0,0,0,0.1218,0.123,0.1222,0.1303,0.1322,0.1336,0.1423,0.1442,0.1466,0.1476,0.1554,0.1569,0.163,0.165,0.1659,0.1609,0.1703,0.1694,0.169,0.1686,0.153,0.1514,0.15,0,0,0,0,0,0.1213,0.1195,0.1221,0.1232,0.1312,0.1333,0.1345,0.1416,0.1463,0.1446,0.1514,0.1566,0.163,0.1651,0.1661,0.1612,0.1696,0.1691,0.1687,0.1537,0.1517,0.15,0,0,0,0,0,0,0.114,0.1208,0.1238,0.1242,0.1269,0.1352,0.1345,0.1397,0.1438,0.1451,0.1543,0.1559,0.1556,0.1602,0.1623,0.1597,0.1669,0.1666,0.1552,0.1533,0.1518,0.1565,0.1706,0,0,0,0,0,0.1117,0.1119,0.1183,0.1178,0.1186,0.126,0.1278,0.1323,0.1376,0.1398,0.1453,0.1508,0.1542,0.1553,0.1591,0.1571,0.1666,0.1545,0.1529,0.1516,0.156,0.1671,0.1671,0.1668,0.1668,0.1668,0,0,0.1086,0.1122,0.1123,0.116,0.1191,0.1188,0.1274,0.1282,0.1285,0.14,0.1406,0.1456,0.1527,0.1515,0.1515,0.1546,0.1548,0.151,0.1498,0.1551,0.1666,0.1668,0.1669,0.1665,0.1665,0.1666,0,0,0.101,0.1051,0.102,0.1039,0.1071,0.1117,0.111,0.1171,0.1199,0.1207,0.1294,0.1323,0.1359,0.141,0.144,0.136,0.1469,0.1346,0.1301,0.1404,0.1407,0.1411,0.1459,0.1469,0.1331,0.1331,0.1331,0,0.0966,0.0958,0.1007,0.0985,0.1004,0.1076,0.1054,0.1079,0.1138,0.117,0.1183,0.1295,0.1319,0.1366,0.1325,0.1328,0.14,0.136,0.1388,0.1394,0.1402,0.1451,0.1464,0.1323,0.1324,0.1324,0.1325,0,0.0868,0.0871,0.085,0.0857,0.087,0.0861,0.0913,0.0924,0.097,0.1025,0.1077,0.1139,0.1229,0.1198,0.1233,0.1278,0.1312,0.136,0.144,0.1393,0.1446,0.1463,0.131,0.1314,0.1316,0.1318,0,0,0.0746,0.078,0.077,0.0809,0.0816,0.085,0.0817,0.086,0.0913,0.0936,0.1013,0.1027,0.111,0.1153,0.1201,0.126,0.1302,0.1314,0.1324,0.1371,0.1508,0.1374,0.138,0.1366,0.137,0.1373,0.15,0,0.0655,0.0643,0.0656,0.0663,0.0684,0.074,0.0738,0.0789,0.0839,0.092,0.0993,0.1079,0.1077,0.1137,0.1188,0.1313,0.1352,0.1263,0.1544,0.1552,0.1447,0.1397,0.1334,0.1431,0.1517,0.152,0.1522,0,0.0541,0.0577,0.0572,0.0673,0.0683,0.0699,0.0791,0.0806,0.0895,0.0935,0.1021,0.11,0.119,0.1203,0.1387,0.1339,0.1408,0.148,0.1489,0.1455,0.1451,0.1508,0.146,0.1505,0.1549,0.1547,0.1545,0,0.0503,0.0525,0.0556,0.0577,0.0668,0.0703,0.0763,0.0833,0.0912,0.0991,0.1055,0.1166,0.1268,0.1384,0.1466,0.1462,0.1668,0.169,0.163,0.162,0.1672,0.1659,0.1722,0.1823,0.1822,0.1822,0.1822,0,0.0435,0.0468,0.0575,0.0613,0.0708,0.0753,0.0865,0.0906,0.1019,0.1134,0.1116,0.1208,0.1329,0.1432,0.1504,0.1596,0.1701,0.1632,0.1655,0.1596,0.1577,0.1706,0.174,0.1827,0.1826,0.1825,0.1824,0,0.0409,0.0443,0.0534,0.0655,0.0706,0.0805,0.098,0.1069,0.1121,0.1269,0.1303,0.1321,0.1388,0.1457,0.1632,0.1644,0.1756,0.1743,0.1614,0.1617,0.1564,0.159,0.1731,0.1786,0.1721,0.1718,0.1716,0,0.0411,0.0442,0.0605,0.069,0.0764,0.0918,0.1016,0.1127,0.1236,0.1338,0.1417,0.145,0.1446,0.1549,0.1553,0.1612,0.1695,0.1605,0.1568,0.1546,0.1599,0.1631,0.1672,0.1563,0.156,0.1557,0.1555,0,0.045,0.0498,0.0595,0.0764,0.0898,0.1049,0.1214,0.1315,0.1437,0.1515,0.1593,0.1575,0.152,0.1464,0.1424,0.1471,0.1608,0.1549,0.1622,0.1543,0.1505,0.1572,0.1456,0.1532,0.1534,0.1536,0.1537,0.1538,0.0511,0.0592,0.0715,0.0879,0.1008,0.1164,0.1297,0.1418,0.157,0.167,0.1704,0.1641,0.1489,0.1355,0.1392,0.1354,0.1431,0.1399,0.1452,0.1501,0.149,0.1254,0.1283,0.1284,0.1284,0.1285,0.1286,0,0.0626,0.0698,0.0832,0.1026,0.1153,0.1212,0.1413,0.1507,0.1634,0.1663,0.1721,0.1619,0.1446,0.1333,0.122,0.1274,0.1363,0.1341,0.1437,0.1505,0.1388,0.1311,0.1232,0.1232,0.1232,0.1232,0.1232,0.1232,0.07,0.0832,0.0893,0.112,0.1233,0.1415,0.1519,0.1598,0.1642,0.1651,0.1612,0.1597,0.1442,0.132,0.1288,0.132,0.148,0.1421,0.1559,0.1505,0.1517,0.1529,0.1465,0.142,0.142,0.1672,0.1674,0.1676]}],[{"header":{"parameterUnit":"m.s-1","parameterCategory":2,"la1":30.2991,"la2":30.254,"lo1":-89.0895,"lo2":-89.0444,"dy":0.0017,"dx":0.0017,"nx":28,"ny":28,"refTime":"2025-11-17T09:00:00:Z","depth":"2","parameterNumber":2,"parameterNumberName":"U-component_of_CURRENTS"},"data":[0,0,0,0,0,0,0,0,0,0,0,0,0,0,0,0,0,0,0,0,0,0,0,0,0,0,0,0,0,0,0,0,0,0,0,0,0,0,0,0,0,0,0,0,0,0,0,0,0,0,0,0,0,0,0,0,0,0,-0.2122,-0.2123,0,-0.217,-0.217,-0.2171,-0.2177,-0.2177,-0.2177,-0.2176,-0.2415,-0.2422,-0.2428,0,0,0,0,0,0,0,0,0,0,0,0,0,-0.1894,-0.1899,-0.2122,-0.2123,-0.2123,-0.217,-0.217,-0.2171,-0.2177,-0.2177,-0.2177,-0.2176,-0.2413,-0.2421,-0.2429,0,0,0,0,0,0,0,0,0,0,0,0,0,-0.1971,-0.19,-0.2122,-0.2134,-0.2136,-0.217,-0.2171,-0.2171,-0.2177,-0.2177,-0.2177,-0.2176,-0.2411,-0.242,-0.243,-0.2498,0,0,-0.246,-0.2464,0,0,0,0,0,0,0,0,-0.1966,-0.1979,-0.2131,-0.2133,-0.2135,-0.2169,-0.2178,-0.2291,-0.2177,-0.2159,-0.2176,-0.2176,-0.2353,-0.2367,-0.2371,-0.2509,-0.2519,-0.2461,-0.2467,-0.2471,-0.2474,0,0,0,0,0,0,0,-0.1961,-0.1976,-0.2138,-0.2132,-0.2135,-0.2089,-0.21,-0.2197,-0.2259,-0.216,-0.2162,-0.2171,-0.2355,-0.2361,-0.2377,-0.2523,-0.2461,-0.2469,-0.2475,-0.2479,-0.2727,-0.2727,0,0,0,0,0,0,-0.1969,-0.1972,-0.2137,-0.214,-0.2051,-0.2094,-0.2107,-0.2157,-0.2254,-0.2267,-0.2171,-0.2171,-0.2344,-0.2366,-0.2386,-0.2514,-0.2471,-0.248,-0.2486,-0.2726,-0.2727,-0.2728,0,0,0,0,0,0,-0.1965,-0.1985,-0.2135,-0.2056,-0.2072,-0.21,-0.2155,-0.2158,-0.2174,-0.226,-0.2277,-0.2185,-0.2345,-0.2372,-0.2544,-0.2522,-0.2485,-0.2494,-0.2725,-0.2726,-0.2727,-0.2745,0,0,0,0,0,0,-0.1959,-0.1984,-0.2009,-0.2058,-0.2077,-0.2191,-0.2156,-0.2159,-0.2181,-0.2181,-0.2279,-0.2298,-0.2347,-0.253,-0.2554,-0.2535,-0.2501,-0.2724,-0.2726,-0.2727,-0.2744,-0.2747,-0.2749,0,0,0,0,0,-0.1951,-0.1983,-0.2011,-0.203,-0.2117,-0.2193,-0.22,-0.2212,-0.2182,-0.2218,-0.231,-0.2296,-0.2549,-0.2543,-0.257,-0.2552,-0.2724,-0.2725,-0.2727,-0.2743,-0.2746,-0.2749,0,0,0,0,0,0,-0.1889,-0.1989,-0.202,-0.2081,-0.2153,-0.2196,-0.2216,-0.2218,-0.2305,-0.2308,-0.2374,-0.2406,-0.2524,-0.2553,-0.2543,-0.2619,-0.2605,-0.2613,-0.2607,-0.2612,-0.2614,-0.2512,-0.251,0,0,0,0,0,-0.1894,-0.1955,-0.2044,-0.2098,-0.2138,-0.2178,-0.2199,-0.2218,-0.2299,-0.2329,-0.2445,-0.251,-0.2544,-0.2599,-0.2677,-0.2769,-0.2713,-0.2751,-0.2753,-0.2756,-0.2688,-0.2611,-0.2598,-0.2732,-0.2732,-0.2732,0,0,-0.1875,-0.1946,-0.1973,-0.209,-0.2139,-0.2185,-0.2191,-0.2245,-0.2274,-0.2352,-0.2493,-0.2562,-0.2578,-0.2671,-0.2716,-0.2701,-0.2704,-0.2757,-0.2759,-0.2688,-0.261,-0.2596,-0.2584,-0.2733,-0.2733,-0.2733,0,0,-0.1873,-0.1953,-0.2001,-0.2067,-0.216,-0.2192,-0.2213,-0.2325,-0.237,-0.2509,-0.253,-0.2588,-0.2747,-0.2722,-0.2709,-0.2768,-0.273,-0.2801,-0.2731,-0.2661,-0.2647,-0.2634,-0.2603,-0.2587,-0.2791,-0.2791,-0.2791,0,-0.1857,-0.1947,-0.2023,-0.2086,-0.2152,-0.2195,-0.2263,-0.2286,-0.2453,-0.2518,-0.2563,-0.2676,-0.2717,-0.268,-0.2691,-0.276,-0.2747,-0.2724,-0.2659,-0.2644,-0.2631,-0.2601,-0.2583,-0.2792,-0.2792,-0.2792,-0.2792,0,-0.1874,-0.1965,-0.2005,-0.2111,-0.2178,-0.2256,-0.2323,-0.2421,-0.2491,-0.2528,-0.2613,-0.2665,-0.2695,-0.2709,-0.2716,-0.2632,-0.2668,-0.2682,-0.2641,-0.2617,-0.2591,-0.2571,-0.2793,-0.2793,-0.2793,-0.2792,0,0,-0.1853,-0.1996,-0.2023,-0.2099,-0.2222,-0.2284,-0.2355,-0.2458,-0.2462,-0.2588,-0.2612,-0.2622,-0.2625,-0.2601,-0.2605,-0.2532,-0.2449,-0.2567,-0.2563,-0.2518,-0.2334,-0.2216,-0.2185,-0.2477,-0.2472,-0.2469,-0.2375,0,-0.1884,-0.1988,-0.2078,-0.2198,-0.2269,-0.2379,-0.2433,-0.2504,-0.2562,-0.261,-0.2567,-0.2569,-0.2573,-0.2562,-0.249,-0.2475,-0.2391,-0.2473,-0.2375,-0.2371,-0.2251,-0.2153,-0.204,-0.1932,-0.2356,-0.2352,-0.235,0,-0.1891,-0.1981,-0.2102,-0.2274,-0.2323,-0.2398,-0.2525,-0.2565,-0.2578,-0.2608,-0.2565,-0.2538,-0.2432,-0.2425,-0.2294,-0.237,-0.2316,-0.2287,-0.2284,-0.2125,-0.2211,-0.2013,-0.188,-0.2317,-0.232,-0.2322,-0.2324,0,-0.1822,-0.2015,-0.2125,-0.2184,-0.2347,-0.2467,-0.2546,-0.2597,-0.2601,-0.2562,-0.2526,-0.2443,-0.2361,-0.2283,-0.2211,-0.2257,-0.2078,-0.2138,-0.1969,-0.1966,-0.1807,-0.1794,-0.1971,-0.1971,-0.1971,-0.1972,-0.1972,0,-0.1815,-0.1916,-0.2117,-0.2173,-0.2316,-0.2441,-0.2529,-0.2576,-0.2563,-0.2502,-0.2478,-0.2361,-0.2312,-0.2221,-0.218,-0.2001,-0.2039,-0.1884,-0.1888,-0.1821,-0.181,-0.2089,-0.2104,-0.1968,-0.1969,-0.197,-0.197,0,-0.1723,-0.1837,-0.1956,-0.2179,-0.2283,-0.2353,-0.2517,-0.2501,-0.2509,-0.2415,-0.2375,-0.2281,-0.2134,-0.2092,-0.1965,-0.1915,-0.1796,-0.1721,-0.1661,-0.1652,-0.1753,-0.1771,-0.1504,-0.1498,-0.1493,-0.1488,-0.1485,0,-0.1675,-0.1728,-0.1946,-0.197,-0.2104,-0.2253,-0.2325,-0.2448,-0.2416,-0.2333,-0.2255,-0.2104,-0.1916,-0.172,-0.162,-0.1487,-0.1606,-0.1328,-0.1324,-0.1651,-0.1684,-0.171,-0.1734,-0.1178,-0.1172,-0.1167,-0.1163,0,-0.1577,-0.165,-0.1725,-0.1823,-0.1933,-0.2038,-0.2176,-0.2155,-0.2222,-0.2134,-0.1964,-0.1804,-0.1589,-0.1352,-0.1211,-0.1143,-0.1347,-0.122,-0.1533,-0.1302,-0.133,-0.1369,-0.1405,-0.1121,-0.1125,-0.1129,-0.1131,-0.1133,-0.1488,-0.1476,-0.1562,-0.164,-0.1732,-0.1804,-0.1811,-0.1871,-0.1826,-0.1656,-0.1673,-0.1405,-0.132,-0.0963,-0.0881,-0.0857,-0.094,-0.094,-0.096,-0.0984,-0.095,-0.0966,-0.0686,-0.0687,-0.0689,-0.069,-0.0691,0,-0.136,-0.1349,-0.1373,-0.1428,-0.1437,-0.1613,-0.1675,-0.1595,-0.1469,-0.1376,-0.1202,-0.0973,-0.0755,-0.0709,-0.0566,-0.0511,-0.0573,-0.0521,-0.0627,-0.0666,-0.0701,-0.0661,-0.0316,-0.0315,-0.0314,-0.0314,0,0,-0.1279,-0.1234,-0.1248,-0.1182,-0.1215,-0.1214,-0.122,-0.1096,-0.1018,-0.0819,-0.0708,-0.0665,-0.0651,-0.0492,-0.0438,-0.0353,-0.0518,-0.0331,-0.0626,-0.0788,-0.0823,-0.0923,-0.0899,0,0,0,0,0]},{"header":{"parameterUnit":"m.s-1","parameterCategory":2,"la1":30.2991,"la2":30.254,"lo1":-89.0895,"lo2":-89.0444,"dy":0.0017,"dx":0.0017,"nx":28,"ny":28,"refTime":"2025-11-17T09:00:00:Z","depth":"2","parameterNumber":3,"parameterNumberName":"V-component_of_CURRENTS"},"data":[0,0,0,0,0,0,0,0,0,0,0,0,0,0,0,0,0,0,0,0,0,0,0,0,0,0,0,0,0,0,0,0,0,0,0,0,0,0,0,0,0,0,0,0,0,0,0,0,0,0,0,0,0,0,0,0,0,0,-0.0972,-0.0972,0,-0.1005,-0.1006,-0.1008,-0.1041,-0.104,-0.1039,-0.1039,-0.066,-0.0651,-0.0642,0,0,0,0,0,0,0,0,0,0,0,0,0,-0.1061,-0.106,-0.0972,-0.0972,-0.0971,-0.1005,-0.1006,-0.1008,-0.1041,-0.104,-0.1039,-0.1038,-0.0663,-0.0652,-0.0641,0,0,0,0,0,0,0,0,0,0,0,0,0,-0.1064,-0.1059,-0.0973,-0.0981,-0.0982,-0.1004,-0.1006,-0.1009,-0.1041,-0.104,-0.1039,-0.1038,-0.0667,-0.0653,-0.0639,-0.0576,0,0,-0.0596,-0.059,0,0,0,0,0,0,0,0,-0.1063,-0.1062,-0.0981,-0.0981,-0.0981,-0.1006,-0.0898,-0.0839,-0.1042,-0.1033,-0.1039,-0.1037,-0.0729,-0.071,-0.0744,-0.0558,-0.0542,-0.0595,-0.0587,-0.0581,-0.0577,0,0,0,0,0,0,0,-0.1063,-0.1061,-0.0999,-0.098,-0.098,-0.1025,-0.1024,-0.0891,-0.089,-0.1033,-0.1033,-0.1015,-0.0728,-0.0758,-0.0734,-0.0536,-0.0595,-0.0583,-0.0574,-0.0569,-0.0067,-0.0063,0,0,0,0,0,0,-0.1026,-0.106,-0.0998,-0.0998,-0.1005,-0.1022,-0.1023,-0.101,-0.09,-0.0882,-0.1016,-0.1016,-0.0783,-0.075,-0.072,-0.0445,-0.0581,-0.0567,-0.0559,-0.0072,-0.0066,-0.0061,0,0,0,0,0,0,-0.1028,-0.1021,-0.0996,-0.102,-0.1018,-0.102,-0.1007,-0.1011,-0.1031,-0.0889,-0.0866,-0.1028,-0.0781,-0.0739,-0.0536,-0.0437,-0.0561,-0.0548,-0.0078,-0.007,-0.0064,-0.0016,0,0,0,0,0,0,-0.1031,-0.1022,-0.1038,-0.1017,-0.1014,-0.1,-0.1007,-0.1012,-0.1015,-0.1017,-0.089,-0.0857,-0.0776,-0.0557,-0.0522,-0.0419,-0.0537,-0.0084,-0.0075,-0.0066,-0.0023,-0.0007,0.0006,0,0,0,0,0,-0.1035,-0.1064,-0.1039,-0.1032,-0.1023,-0.0999,-0.1004,-0.1011,-0.1017,-0.1028,-0.0893,-0.086,-0.0474,-0.0542,-0.0502,-0.0393,-0.0089,-0.0077,-0.0067,-0.003,-0.0011,0.0006,0,0,0,0,0,0,-0.1117,-0.1067,-0.104,-0.1053,-0.1013,-0.0999,-0.1021,-0.1011,-0.0937,-0.0918,-0.0795,-0.0748,-0.0535,-0.0468,-0.0546,-0.0219,-0.0276,-0.0257,-0.0262,-0.0243,-0.0228,-0.0302,-0.0526,0,0,0,0,0,-0.1132,-0.1129,-0.1074,-0.1074,-0.1059,-0.1037,-0.1039,-0.1025,-0.0942,-0.092,-0.0784,-0.063,-0.0466,-0.0361,-0.0221,-0.0039,-0.0062,0.0058,0.0073,0.0084,0.0055,0.0087,0.0098,-0.0025,-0.0025,-0.0025,0,0,-0.1153,-0.1127,-0.1123,-0.1089,-0.1069,-0.1046,-0.104,-0.1027,-0.0985,-0.087,-0.0735,-0.0573,-0.0408,-0.02,-0.0099,-0.0124,0.0119,0.0098,0.0107,0.007,0.0099,0.011,0.0119,-0.0017,-0.0019,-0.002,0,0,-0.1176,-0.1172,-0.1168,-0.1139,-0.1089,-0.1071,-0.1057,-0.0989,-0.0949,-0.0792,-0.0675,-0.046,-0.0227,-0.0074,0.0025,0.0205,0.0187,0.0274,0.0305,0.0338,0.0346,0.0352,0.0357,0.0363,0.029,0.029,0.029,0,-0.1198,-0.1184,-0.1164,-0.1142,-0.1114,-0.1073,-0.1046,-0.101,-0.0863,-0.0767,-0.0734,-0.0334,-0.0179,0.0075,0.0159,0.0236,0.0227,0.022,0.0348,0.0354,0.036,0.0363,0.0369,0.0294,0.0294,0.0293,0.0293,0,-0.1203,-0.1192,-0.1187,-0.1136,-0.1112,-0.1085,-0.1005,-0.0925,-0.0837,-0.0744,-0.047,-0.0251,-0.0013,0.0101,0.0195,0.0372,0.0344,0.0346,0.0277,0.0373,0.0373,0.0378,0.0299,0.0298,0.0297,0.0296,0,0,-0.1214,-0.1195,-0.1184,-0.1155,-0.1104,-0.107,-0.0985,-0.0864,-0.0766,-0.0583,-0.0432,-0.0094,0.0035,0.0154,0.0326,0.0392,0.047,0.0395,0.0395,0.0353,0.0512,0.0416,0.0412,0.0479,0.048,0.0481,0.0499,0,-0.1204,-0.1192,-0.1168,-0.1117,-0.1101,-0.1022,-0.0925,-0.0803,-0.0678,-0.0514,-0.0296,-0.008,0.0044,0.02,0.0289,0.0429,0.0483,0.0462,0.0465,0.0464,0.0328,0.0415,0.0409,0.0416,0.0504,0.0505,0.0505,0,-0.1193,-0.119,-0.1171,-0.1079,-0.1053,-0.1004,-0.084,-0.0733,-0.0526,-0.0415,-0.0208,-0.0072,0.0151,0.0186,0.0397,0.0372,0.0442,0.0506,0.0508,0.0389,0.0377,0.0339,0.0422,0.0513,0.0512,0.0512,0.0511,0,-0.1215,-0.1166,-0.1157,-0.1137,-0.1043,-0.0967,-0.0868,-0.0675,-0.0563,-0.0358,-0.0286,-0.0037,0.008,0.0199,0.0345,0.0377,0.0465,0.0522,0.0491,0.0484,0.0461,0.0449,0.0601,0.0601,0.0601,0.0601,0.0601,0,-0.1209,-0.1187,-0.1162,-0.1155,-0.1076,-0.0961,-0.0812,-0.0687,-0.0499,-0.0386,-0.0222,-0.0152,0.0074,0.0152,0.029,0.0379,0.0419,0.0484,0.0483,0.0483,0.0473,0.0538,0.053,0.0602,0.0602,0.0602,0.0602,0,-0.1224,-0.1218,-0.12,-0.1123,-0.1101,-0.1013,-0.0839,-0.0731,-0.0547,-0.0431,-0.0382,-0.0238,-0.0132,0.0034,0.0205,0.029,0.0398,0.0406,0.037,0.0363,0.0417,0.0413,0.0414,0.0411,0.0408,0.0406,0.0404,0,-0.1232,-0.124,-0.1223,-0.1214,-0.1182,-0.1058,-0.0989,-0.0783,-0.0697,-0.0506,-0.0496,-0.0376,-0.0319,-0.0141,0.0038,0.0211,0.0283,0.0282,0.0361,0.0399,0.0399,0.0399,0.0399,0.0377,0.0375,0.0373,0.0372,0,-0.1235,-0.1241,-0.1224,-0.1252,-0.1218,-0.1164,-0.1051,-0.1014,-0.0784,-0.0721,-0.0655,-0.0599,-0.0427,-0.0259,-0.0066,0.0049,0.0265,0.025,0.0313,0.0397,0.0357,0.0358,0.0361,0.0357,0.0359,0.036,0.0361,0.0361,-0.1225,-0.122,-0.123,-0.1232,-0.1237,-0.1248,-0.1173,-0.1103,-0.1008,-0.085,-0.0829,-0.0696,-0.0506,-0.0228,-0.0074,0.011,0.0123,0.0232,0.0241,0.0251,0.0216,0.017,0.0128,0.0128,0.0129,0.0129,0.0129,0,-0.1194,-0.1195,-0.1213,-0.1207,-0.1226,-0.1241,-0.1203,-0.1104,-0.104,-0.0946,-0.0849,-0.064,-0.048,-0.0244,0.0008,0.0124,0.0193,0.0181,0.0274,0.0284,0.0294,0.0266,0.019,0.0191,0.0192,0.0193,0,0,-0.1169,-0.1162,-0.1177,-0.1184,-0.1206,-0.1193,-0.118,-0.1089,-0.0977,-0.0874,-0.0759,-0.0668,-0.0439,-0.0232,-0.0067,0.0084,0.0169,0.0108,0.0038,0.0138,0.0148,0.0289,0.025,0,0,0,0,0]}],[{"header":{"parameterUnit":"m.s-1","parameterCategory":2,"la1":30.2991,"la2":30.254,"lo1":-89.0895,"lo2":-89.0444,"dy":0.0017,"dx":0.0017,"nx":28,"ny":28,"refTime":"2025-11-17T09:00:00:Z","depth":"4","parameterNumber":2,"parameterNumberName":"U-component_of_CURRENTS"},"data":[0,0,0,0,0,0,0,0,0,0,0,0,0,0,0,0,0,0,0,0,0,0,0,0,0,0,0,0,0,0,0,0,0,0,0,0,0,0,0,0,0,0,0,0,0,0,0,0,0,0,0,0,0,0,0,0,0,0,-0.093,-0.0931,0,-0.0966,-0.0967,-0.0967,-0.0993,-0.0994,-0.0994,-0.0995,-0.1018,-0.1019,-0.1019,0,0,0,0,0,0,0,0,0,0,0,0,0,-0.0838,-0.084,-0.093,-0.0931,-0.0932,-0.0966,-0.0967,-0.0967,-0.0993,-0.0994,-0.0995,-0.0995,-0.1018,-0.1019,-0.1019,0,0,0,0,0,0,0,0,0,0,0,0,0,-0.0874,-0.084,-0.093,-0.0952,-0.0954,-0.0966,-0.0967,-0.0967,-0.0993,-0.0994,-0.0995,-0.0995,-0.1018,-0.1019,-0.1019,-0.1004,0,0,-0.1019,-0.1019,0,0,0,0,0,0,0,0,-0.0872,-0.0876,-0.0948,-0.095,-0.0953,-0.0979,-0.0943,-0.098,-0.0993,-0.0975,-0.0995,-0.0996,-0.1006,-0.1007,-0.1007,-0.1005,-0.1006,-0.1019,-0.1019,-0.1019,-0.102,0,0,0,0,0,0,0,-0.0869,-0.0875,-0.0941,-0.0949,-0.0952,-0.0944,-0.095,-0.095,-0.0982,-0.0976,-0.0979,-0.0988,-0.1007,-0.1007,-0.1008,-0.1006,-0.1019,-0.1019,-0.102,-0.102,-0.1067,-0.1068,0,0,0,0,0,0,-0.0873,-0.0873,-0.094,-0.0943,-0.0917,-0.0946,-0.0952,-0.0967,-0.0983,-0.0987,-0.0988,-0.099,-0.1006,-0.1008,-0.1009,-0.105,-0.1019,-0.102,-0.102,-0.1066,-0.1068,-0.1069,0,0,0,0,0,0,-0.0871,-0.0879,-0.0939,-0.0911,-0.0918,-0.0947,-0.0963,-0.0968,-0.0989,-0.0992,-0.0996,-0.1007,-0.1007,-0.1009,-0.1032,-0.1049,-0.102,-0.102,-0.1065,-0.1067,-0.1068,-0.1094,0,0,0,0,0,0,-0.0868,-0.0878,-0.0889,-0.0911,-0.092,-0.0954,-0.0963,-0.0968,-0.0993,-0.0997,-0.101,-0.1011,-0.1008,-0.1032,-0.1032,-0.1049,-0.102,-0.1063,-0.1066,-0.1068,-0.1092,-0.1097,-0.1101,0,0,0,0,0,-0.0865,-0.0872,-0.0889,-0.0898,-0.0935,-0.0955,-0.0958,-0.0978,-0.0994,-0.1,-0.102,-0.1012,-0.1046,-0.1033,-0.1033,-0.105,-0.1062,-0.1065,-0.1068,-0.109,-0.1096,-0.1101,0,0,0,0,0,0,-0.0835,-0.0876,-0.0896,-0.0915,-0.094,-0.0961,-0.0971,-0.0988,-0.1008,-0.1021,-0.1022,-0.1025,-0.1054,-0.105,-0.1035,-0.1072,-0.1055,-0.1057,-0.1072,-0.1077,-0.1081,-0.1095,-0.102,0,0,0,0,0,-0.0835,-0.0854,-0.0891,-0.0907,-0.0925,-0.0953,-0.0965,-0.0986,-0.1007,-0.1018,-0.1024,-0.1041,-0.106,-0.1068,-0.1078,-0.1092,-0.1083,-0.1106,-0.111,-0.1114,-0.1127,-0.1128,-0.1133,-0.1077,-0.1077,-0.1077,0,0,-0.083,-0.0854,-0.0866,-0.0903,-0.0926,-0.095,-0.0962,-0.0993,-0.1014,-0.1016,-0.1041,-0.1055,-0.107,-0.1092,-0.1104,-0.1092,-0.1123,-0.1117,-0.112,-0.1132,-0.1131,-0.1136,-0.1141,-0.1079,-0.1079,-0.1079,0,0,-0.082,-0.0853,-0.0866,-0.0891,-0.0935,-0.0954,-0.097,-0.1002,-0.1022,-0.105,-0.1065,-0.1095,-0.1106,-0.1126,-0.1137,-0.1173,-0.1148,-0.1173,-0.1202,-0.1203,-0.1207,-0.1211,-0.1191,-0.1192,-0.1172,-0.1172,-0.1172,0,-0.0809,-0.0841,-0.087,-0.0892,-0.0914,-0.0961,-0.0982,-0.1009,-0.1042,-0.1054,-0.1064,-0.1108,-0.1127,-0.1161,-0.1188,-0.1183,-0.117,-0.1178,-0.1207,-0.1211,-0.1214,-0.1193,-0.1194,-0.1174,-0.1174,-0.1174,-0.1173,0,-0.0815,-0.0845,-0.0857,-0.0903,-0.0923,-0.0955,-0.0999,-0.102,-0.1052,-0.1075,-0.1116,-0.1147,-0.1169,-0.1187,-0.1207,-0.1244,-0.1221,-0.1212,-0.119,-0.1221,-0.1197,-0.1198,-0.1176,-0.1176,-0.1175,-0.1175,0,0,-0.0785,-0.0849,-0.0857,-0.088,-0.0939,-0.0955,-0.0992,-0.1032,-0.1049,-0.1097,-0.1109,-0.1185,-0.1203,-0.1221,-0.1242,-0.1265,-0.1288,-0.1259,-0.1259,-0.1232,-0.1271,-0.1161,-0.1151,-0.1278,-0.1279,-0.128,-0.1238,0,-0.0788,-0.0823,-0.0856,-0.0895,-0.092,-0.0964,-0.0988,-0.1027,-0.1056,-0.1074,-0.1133,-0.1162,-0.1214,-0.1229,-0.1264,-0.1283,-0.1295,-0.1299,-0.1252,-0.125,-0.1143,-0.1151,-0.1282,-0.1239,-0.1239,-0.1239,-0.1239,0,-0.0794,-0.0815,-0.0845,-0.0893,-0.0908,-0.0936,-0.0971,-0.1,-0.1041,-0.106,-0.1104,-0.1135,-0.1202,-0.1225,-0.1282,-0.1279,-0.1288,-0.1299,-0.1297,-0.1189,-0.1142,-0.1206,-0.1241,-0.1241,-0.1241,-0.1241,-0.1241,0,-0.0761,-0.0815,-0.0836,-0.0855,-0.0906,-0.0926,-0.0962,-0.0999,-0.1017,-0.1053,-0.1054,-0.1124,-0.1145,-0.1195,-0.1241,-0.1261,-0.1267,-0.1281,-0.1184,-0.1175,-0.1276,-0.1273,-0.1304,-0.1305,-0.1305,-0.1305,-0.1305,0,-0.0753,-0.0775,-0.0827,-0.084,-0.086,-0.0908,-0.0934,-0.0961,-0.0997,-0.1001,-0.1054,-0.1051,-0.1141,-0.1154,-0.121,-0.1189,-0.1237,-0.1189,-0.116,-0.1286,-0.1284,-0.1275,-0.1272,-0.1303,-0.1303,-0.1304,-0.1304,0,-0.071,-0.0752,-0.0778,-0.0831,-0.0846,-0.0863,-0.0926,-0.0933,-0.0972,-0.0968,-0.0981,-0.1003,-0.1011,-0.1066,-0.111,-0.1114,-0.1126,-0.1099,-0.1208,-0.1185,-0.1045,-0.1044,-0.0996,-0.0992,-0.0989,-0.0986,-0.0983,0,-0.0689,-0.0697,-0.0751,-0.0764,-0.0793,-0.0832,-0.0847,-0.0911,-0.0916,-0.0929,-0.091,-0.0911,-0.0924,-0.0886,-0.0961,-0.1,-0.1008,-0.0994,-0.1063,-0.1038,-0.1015,-0.102,-0.1024,-0.0978,-0.0977,-0.0976,-0.0975,0,-0.0639,-0.0667,-0.0681,-0.0703,-0.073,-0.0745,-0.0783,-0.0781,-0.0827,-0.0868,-0.0818,-0.0812,-0.0783,-0.0816,-0.0819,-0.0868,-0.1004,-0.0958,-0.0967,-0.1032,-0.1015,-0.0996,-0.1004,-0.0962,-0.0964,-0.0965,-0.0966,0,-0.0601,-0.0599,-0.0626,-0.0634,-0.0653,-0.0642,-0.0682,-0.0687,-0.0702,-0.0736,-0.0713,-0.0721,-0.0753,-0.0742,-0.0766,-0.0776,-0.08,-0.0811,-0.0829,-0.0843,-0.0817,-0.0775,-0.0618,0,0,0,0,0,-0.0563,-0.0553,-0.0557,-0.056,-0.0568,-0.0578,-0.0616,-0.0656,-0.0705,-0.0647,-0.0687,-0.0665,-0.0657,-0.0669,-0.0655,-0.0715,-0.0808,-0.0697,-0.0832,-0.0894,-0.0908,-0.0895,0,0,0,0,0,0,-0.0544,-0.0545,-0.0534,-0.0481,-0.0463,-0.0463,-0.0482,-0.052,-0.051,-0.0566,-0.0568,-0.0618,-0.0628,-0.0647,-0.0633,-0.0643,-0.0715,-0.0726,-0.0724,-0.0886,-0.0899,-0.091,-0.0902,0,0,0,0,0]},{"header":{"parameterUnit":"m.s-1","parameterCategory":2,"la1":30.2991,"la2":30.254,"lo1":-89.0895,"lo2":-89.0444,"dy":0.0017,"dx":0.0017,"nx":28,"ny":28,"refTime":"2025-11-17T09:00:00:Z","depth":"4","parameterNumber":3,"parameterNumberName":"V-component_of_CURRENTS"},"data":[0,0,0,0,0,0,0,0,0,0,0,0,0,0,0,0,0,0,0,0,0,0,0,0,0,0,0,0,0,0,0,0,0,0,0,0,0,0,0,0,0,0,0,0,0,0,0,0,0,0,0,0,0,0,0,0,0,0,-0.0775,-0.0775,0,-0.0801,-0.0801,-0.0801,-0.0814,-0.0814,-0.0814,-0.0814,-0.0807,-0.0807,-0.0807,0,0,0,0,0,0,0,0,0,0,0,0,0,-0.0755,-0.0755,-0.0775,-0.0775,-0.0776,-0.0801,-0.0801,-0.0801,-0.0814,-0.0814,-0.0814,-0.0814,-0.0807,-0.0807,-0.0807,0,0,0,0,0,0,0,0,0,0,0,0,0,-0.077,-0.0755,-0.0775,-0.0786,-0.0787,-0.0801,-0.0801,-0.0801,-0.0814,-0.0814,-0.0814,-0.0814,-0.0807,-0.0807,-0.0807,-0.0803,0,0,-0.0806,-0.0805,0,0,0,0,0,0,0,0,-0.0769,-0.077,-0.0784,-0.0785,-0.0786,-0.0805,-0.0791,-0.08,-0.0814,-0.0803,-0.0814,-0.0814,-0.0804,-0.0804,-0.0808,-0.0803,-0.0802,-0.0806,-0.0805,-0.0805,-0.0805,0,0,0,0,0,0,0,-0.0768,-0.077,-0.0785,-0.0784,-0.0786,-0.0795,-0.0797,-0.0793,-0.0802,-0.0804,-0.0805,-0.0809,-0.0804,-0.0808,-0.0808,-0.0802,-0.0806,-0.0805,-0.0805,-0.0805,-0.0806,-0.0806,0,0,0,0,0,0,-0.0765,-0.0768,-0.0784,-0.0786,-0.0778,-0.0795,-0.0797,-0.0798,-0.0803,-0.0804,-0.0809,-0.0809,-0.0809,-0.0808,-0.0808,-0.0822,-0.0805,-0.0805,-0.0805,-0.0806,-0.0806,-0.0806,0,0,0,0,0,0,-0.0764,-0.0766,-0.0783,-0.0778,-0.0781,-0.0795,-0.0796,-0.0799,-0.0817,-0.0806,-0.0807,-0.0826,-0.0809,-0.0808,-0.0814,-0.0821,-0.0805,-0.0804,-0.0805,-0.0806,-0.0806,-0.0839,0,0,0,0,0,0,-0.0763,-0.0765,-0.077,-0.0778,-0.0781,-0.0797,-0.0796,-0.0799,-0.0819,-0.082,-0.0821,-0.082,-0.0809,-0.0815,-0.0814,-0.082,-0.0804,-0.0805,-0.0806,-0.0806,-0.0837,-0.084,-0.0842,0,0,0,0,0,-0.0762,-0.0762,-0.077,-0.0773,-0.0786,-0.0798,-0.08,-0.0811,-0.0819,-0.0828,-0.083,-0.0821,-0.0817,-0.0815,-0.0814,-0.082,-0.0805,-0.0805,-0.0806,-0.0836,-0.0839,-0.0842,0,0,0,0,0,0,-0.0753,-0.0764,-0.0773,-0.0776,-0.0791,-0.08,-0.0807,-0.0821,-0.0831,-0.0835,-0.0827,-0.0826,-0.0832,-0.0822,-0.0821,-0.0821,-0.0808,-0.0808,-0.0831,-0.0834,-0.0837,-0.0838,-0.0804,0,0,0,0,0,-0.0755,-0.0762,-0.0774,-0.0781,-0.0785,-0.0802,-0.0811,-0.0823,-0.0831,-0.0837,-0.0841,-0.0839,-0.0831,-0.0831,-0.0825,-0.0829,-0.0812,-0.083,-0.0833,-0.0835,-0.0835,-0.0825,-0.0827,-0.0808,-0.0808,-0.0808,0,0,-0.076,-0.0762,-0.0771,-0.0781,-0.0791,-0.0799,-0.0808,-0.0826,-0.0836,-0.0833,-0.0851,-0.0851,-0.0835,-0.0837,-0.0838,-0.0831,-0.083,-0.0836,-0.0838,-0.0836,-0.0826,-0.0827,-0.0829,-0.0808,-0.0808,-0.0808,0,0,-0.076,-0.0769,-0.0773,-0.0782,-0.0798,-0.0808,-0.0818,-0.0839,-0.085,-0.0867,-0.0864,-0.0874,-0.0869,-0.0862,-0.0853,-0.0867,-0.0845,-0.0864,-0.0879,-0.087,-0.0871,-0.0872,-0.0845,-0.0843,-0.0865,-0.0865,-0.0865,0,-0.0764,-0.0768,-0.0778,-0.0778,-0.0787,-0.0813,-0.0821,-0.0833,-0.086,-0.0869,-0.0875,-0.088,-0.0877,-0.087,-0.0878,-0.0873,-0.0858,-0.0869,-0.0873,-0.0874,-0.0875,-0.0846,-0.0844,-0.0867,-0.0867,-0.0866,-0.0866,0,-0.0765,-0.0771,-0.0772,-0.0782,-0.0793,-0.0807,-0.0822,-0.0843,-0.0865,-0.088,-0.0894,-0.0896,-0.0898,-0.0899,-0.0893,-0.0896,-0.088,-0.0879,-0.0867,-0.0879,-0.0848,-0.0845,-0.0869,-0.0869,-0.0868,-0.0868,0,0,-0.0763,-0.0773,-0.0775,-0.0785,-0.0799,-0.0812,-0.0823,-0.0844,-0.0861,-0.0885,-0.09,-0.0903,-0.0919,-0.0911,-0.091,-0.0908,-0.0903,-0.09,-0.0899,-0.0874,-0.0869,-0.0785,-0.0774,-0.0906,-0.0906,-0.0905,-0.0842,0,-0.0765,-0.0772,-0.0775,-0.0793,-0.08,-0.0818,-0.0828,-0.085,-0.0871,-0.0893,-0.0899,-0.0915,-0.0916,-0.0929,-0.0925,-0.0919,-0.0899,-0.0919,-0.0859,-0.0857,-0.0783,-0.0769,-0.0905,-0.084,-0.0839,-0.0839,-0.0839,0,-0.076,-0.0768,-0.0784,-0.0804,-0.0809,-0.0827,-0.0857,-0.0869,-0.089,-0.0905,-0.092,-0.0929,-0.0939,-0.0936,-0.0915,-0.093,-0.0897,-0.0882,-0.0879,-0.0788,-0.0768,-0.0827,-0.0833,-0.0834,-0.0834,-0.0834,-0.0835,0,-0.0759,-0.0773,-0.0792,-0.0799,-0.0822,-0.0839,-0.086,-0.0882,-0.0894,-0.0922,-0.0936,-0.0943,-0.0954,-0.0929,-0.0899,-0.0913,-0.0858,-0.0871,-0.0752,-0.0746,-0.0828,-0.0827,-0.0829,-0.0829,-0.083,-0.083,-0.083,0,-0.0748,-0.0765,-0.0801,-0.0812,-0.0841,-0.0854,-0.0887,-0.0902,-0.0922,-0.0936,-0.095,-0.0954,-0.0955,-0.0925,-0.0893,-0.0806,-0.0848,-0.0743,-0.0722,-0.0841,-0.0843,-0.0825,-0.0825,-0.0827,-0.0828,-0.0828,-0.0829,0,-0.0729,-0.0756,-0.0778,-0.0819,-0.0841,-0.086,-0.0905,-0.092,-0.0942,-0.0958,-0.0968,-0.0968,-0.0926,-0.0888,-0.0841,-0.0788,-0.0722,-0.0669,-0.0779,-0.0768,-0.0617,-0.062,-0.0544,-0.054,-0.0537,-0.0535,-0.0533,0,-0.0716,-0.0727,-0.0784,-0.0806,-0.0829,-0.087,-0.0895,-0.0929,-0.0941,-0.0958,-0.0957,-0.0927,-0.0913,-0.0779,-0.0742,-0.0638,-0.0617,-0.0576,-0.0613,-0.0599,-0.0587,-0.0595,-0.0601,-0.0528,-0.0527,-0.0526,-0.0526,0,-0.0686,-0.0715,-0.0735,-0.0783,-0.0823,-0.0857,-0.0899,-0.0906,-0.0935,-0.0962,-0.0932,-0.0876,-0.0806,-0.0738,-0.0638,-0.0573,-0.0612,-0.0545,-0.0551,-0.0586,-0.0579,-0.0572,-0.0582,-0.0515,-0.0517,-0.0518,-0.0518,0,-0.0665,-0.0672,-0.0711,-0.0747,-0.0794,-0.0826,-0.0857,-0.0872,-0.0887,-0.0908,-0.0896,-0.0844,-0.0835,-0.0699,-0.0619,-0.0532,-0.052,-0.0504,-0.0513,-0.0524,-0.0535,-0.0524,-0.0414,0,0,0,0,0,-0.0638,-0.0648,-0.0674,-0.0717,-0.0759,-0.0795,-0.0845,-0.0871,-0.091,-0.0877,-0.0885,-0.0817,-0.0692,-0.0655,-0.0549,-0.0557,-0.05,-0.0428,-0.0486,-0.0458,-0.047,-0.0478,0,0,0,0,0,0,-0.0623,-0.0644,-0.0657,-0.0681,-0.0708,-0.0756,-0.079,-0.082,-0.0804,-0.0836,-0.0774,-0.0772,-0.0656,-0.0747,-0.0542,-0.0519,-0.0535,-0.0387,-0.0384,-0.0451,-0.0462,-0.0471,-0.0484,0,0,0,0,0]}]]